Find Starlink 11232

NORAD ID: 60401 Int'l Des: 2024-141 Owner: SPXS Country: US Constellation: starlink operational
LEOCIRCULAR

当前视图

正在加载3D地球...

About Starlink 11232

Starlink 11232 (NORAD 60401) is a starlink constellation satellite (v2 mini d2c) launched Aug 10, 2024 by SPXS of US. It operates in LEO, CIRCULAR orbit with a mass of 960.00 kg.

关于 Starlink 11232

正在加载描述...

即将过境

Passes for default location (London). Set your location on the main map for personalized predictions.

高度历史

Loading altitude history...

两行轨道根数

1 60401U 24141D 26170.66944720 -.00013360 00000-0 -10558-3 0 9994
2 60401 53.1579 303.2700 0000665 101.9170 258.1922 15.69715221107763
Epoch: Jun 19, 2026 • Age: 14 hours

当前状态

高度 360.1 km
速度 7.70 km/s
星下点 7.04°N, 50.59°W
发射日期 Aug 10, 2024
运行时间 1.8 years
类型 internet

技术详情

分类 Payload
质量 960.00 kg
干质量 910.00 kg
总质量 960.00 kg
长度 0.30 m
直径 4.10 m
跨度 29.00 m
形状 Box + pan
制造商 SPXS
平台类型 Starlink V2MD
阶段状态 In Orbit
所有者/国家 SPXS/US

Most Searched